Location: Strawberry
(45.6646°N, 111.9596°W)
Time: 21:00:28
(UTC+00:00)

Explorer 11/Cluster Stage 4 - Pass Details

Date: 14 October 2022
Orbit: 466 x 1248 km, 28.8° (Epoch: 28 November)

Event Time Altitude Azimuth Distance (km) Brightness Sun altitude
Rises 18:27:30 0° 251° (WSW) 3,980 10.3 35.0°
Reaches altitude 10° 18:31:49 10° 228° (SW) 3,124 10.1 35.2°
Maximum altitude 18:35:41 14° 199° (SSW) 2,855 10.5 35.3°
Drops below altitude 10° 18:39:38 10° 170° (S) 3,207 11.1 35.4°
Sets 18:44:11 0° 148° (SSE) 4,157 11.1 35.6°
